User: anonymous   Login
Location: Peebles
(55.6412°N, 3.1714°W)
Time: 03:42:53
(UTC+01:00)
Language:

SL-16 DEB - Orbit

View from above orbital plane
View from above orbital plane
View from above satellite
View from above satellite

Ground track
Ground track

The orbit data is extracted from the following two-line orbital elements,

1 27491U 98043L   22181.29841087  .00000029  00000-0  58673-4 0  9994
2 27491  99.0896 299.1738 0206545 194.0242 165.5121 13.79472058206510
Epoch (UTC): 30 June 2022 07:09:42
Eccentricity: 0.0206545
inclination: 99.0896°
perigee height: 814 km
apogee height: 1117 km
right ascension of ascending node: 299.1738°
argument of perigee: 194.0242°
revolutions per day: 13.79472058
mean anomaly at epoch: 165.5121°
orbit number at epoch: 20651

The dashed part of the orbit path shows where the satellite is in the earth's shadow,  

DLR